Hourly Data Report for December 12, 2002

TORONTO CITY
ONTARIO

43°40'00.000" N
79°24'00.000" W
112.50 m
6158355
71508
XTO

Download Data

Hourly Data (December 2002)
Hourly Data Report for December 12, 2002
TIME
LST
Temp Definition
°C
Dew Point Definition
°C
Rel Hum Definition
%
Precip. Amount Definition
mm

Wind Dir Definition
10's deg

Wind Spd Definition
km/h
Visibility Definition
km
Stn Press Definition
kPa
Hmdx Definition


Wind Chill Definition


Weather Definition


00:00 1.6 0.5 92   LegendMM LegendMM LegendMM 100.39     LegendNANA
01:00 1.6 0.5 92   LegendMM LegendMM LegendMM 100.37     LegendNANA
02:00 2.0 0.8 92   LegendMM LegendMM LegendMM 100.36     LegendNANA
03:00 2.1 0.9 92   LegendMM LegendMM LegendMM 100.41     LegendNANA
04:00 2.3 1.3 93   LegendMM LegendMM LegendMM 100.39     LegendNANA
05:00 2.4 1.4 93   LegendMM LegendMM LegendMM 100.44     LegendNANA
06:00 2.4 1.4 93   LegendMM LegendMM LegendMM 100.49     LegendNANA
07:00 2.7 1.8 94   LegendMM LegendMM LegendMM 100.52     LegendNANA
08:00 3.2 2.5 95   LegendMM LegendMM LegendMM 100.59     LegendNANA
09:00 3.6 3.0 96   LegendMM LegendMM LegendMM 100.62     LegendNANA
10:00 4.1 2.8 91   LegendMM LegendMM LegendMM 100.65     LegendNANA
11:00 4.5 1.7 82   LegendMM LegendMM LegendMM 100.68     LegendNANA
12:00 5.0 1.5 78   LegendMM LegendMM LegendMM 100.67     LegendNANA
13:00 5.8 2.1 77   LegendMM LegendMM LegendMM 100.63     LegendNANA
14:00 5.8 1.9 76   LegendMM LegendMM LegendMM 100.61     LegendNANA
15:00 5.7 2.2 78   LegendMM LegendMM LegendMM 100.60     LegendNANA
16:00 5.3 1.6 77   LegendMM LegendMM LegendMM 100.62     LegendNANA
17:00 4.6 1.1 78   LegendMM LegendMM LegendMM 100.64     LegendNANA
18:00 4.2 1.1 80   LegendMM LegendMM LegendMM 100.67     LegendNANA
19:00 3.8 0.3 78   LegendMM LegendMM LegendMM 100.69     LegendNANA
20:00 3.2 -0.2 78   LegendMM LegendMM LegendMM 100.75     LegendNANA
21:00 3.0 -0.4 78   LegendMM LegendMM LegendMM 100.79     LegendNANA
22:00 2.1 -0.7 82   LegendMM LegendMM LegendMM 100.76     LegendNANA
23:00 2.1 -0.7 82   LegendMM LegendMM LegendMM 100.72     LegendNANA

Notes on Data Quality.

Legend

  • E = Estimated
  • M = Missing
  • NA = Not Available*
  • [empty] = Indicates an unobserved value
Date modified: